Weather History for Vancouver, BC

Change the Weather History Date:

Thursday, January 31, 2013

  Actual Average Record
Temperature  
Mean Temperature 46 °F -  
Max Temperature 50 °F 43 °F 53 °F (2003)
Min Temperature 42 °F 34 °F 28 °F (2011)
Degree Days  
Heating Degree Days 19    
Moisture  
Dew Point 43 °F    
Average Humidity 91    
Maximum Humidity 93    
Minimum Humidity 80    
Precipitation  
Precipitation 0.04 in - - ()
Sea Level Pressure  
Sea Level Pressure 30.32 in    
Wind  
Wind Speed 5 mph ()    
Max Wind Speed 12 mph    
Max Gust Speed -    
Visibility 5.2 miles    
Events Fog , Rain    
Averages and records for this station are not official NWS values.
T = Trace of Precipitation, MM = Missing Value Source: Averaged Metar Reports

Daily Weather History Graph

Daily Weather History Graph

Search for Another Location

Airport:

Trip Planner

Search our weather history database for the weather conditions in past years. The results will help you decide how hot, cold, wet, or windy it might be!

Date:

Astronomy

Jan. 31, 2013 Rise Set
Actual Time 7:44 AM PST 5:08 PM PST
Civil Twilight 7:10 AM PST 5:42 PM PST
Nautical Twilight 6:32 AM PST 6:20 PM PST
Astronomical Twilight 5:54 AM PST 6:58 PM PST
Moon 10:50 PM PST (1/31) 9:16 AM PST (1/31)
Length of Visible Light 10h 32m
Length of Day
9h 23m
Waning Gibbous, 79% of the Moon is Illuminated
Jan 31
Waning Gibbous
Feb 3
Last Quarter
Feb 9
New
Feb 17
First Quarter
Feb 25
Full

Hourly Weather History & Observations

Time (PST) Temp. Windchill Dew Point Humidity Pressure Visibility Wind Dir Wind Speed Gust Speed Precip Events Conditions
12:00 AM 42.8 °F - 41.0 °F 93% 30.37 in 0.8 mi Calm Calm - N/A   Overcast
12:46 AM 42.8 °F 41.1 °F - N/A% - 0.6 mi WNW 3.5 mph - N/A   Overcast
1:00 AM 42.8 °F 40.1 °F 41.0 °F 93% 30.38 in 0.5 mi WNW 4.6 mph - N/A Fog Fog
1:19 AM 42.8 °F 41.1 °F - N/A% - 0.6 mi NNW 3.5 mph - N/A   Light Drizzle
1:38 AM 42.8 °F 41.1 °F - N/A% - 0.8 mi NNE 3.5 mph - N/A   Light Drizzle
2:00 AM 42.8 °F - 41.0 °F 93% 30.37 in 1.0 mi Calm Calm - N/A   Light Drizzle
2:12 AM 42.8 °F 40.1 °F - N/A% - 2.2 mi NE 4.6 mph - N/A   Light Drizzle
2:19 AM 42.8 °F - - N/A% - 6.0 mi Calm Calm - N/A   Light Drizzle
3:00 AM 42.8 °F 41.1 °F 41.0 °F 93% 30.36 in 6.0 mi SSE 3.5 mph - N/A   Light Drizzle
3:19 AM 42.8 °F - - N/A% - 12.0 mi Calm Calm - N/A   Mostly Cloudy
4:00 AM 43 °F - 41 °F 90% 30.36 in 6 mi Calm Calm - - Rain Light Drizzle
4:00 AM 42.8 °F - 41.0 °F 93% 30.36 in 6.0 mi Calm Calm - N/A   Overcast
5:00 AM 42.8 °F 39.3 °F 41.0 °F 93% 30.35 in 4.0 mi ESE 5.8 mph - N/A   Overcast
5:41 AM 42.8 °F 39.3 °F - N/A% - 3.0 mi East 5.8 mph - N/A   Overcast
6:00 AM 42.8 °F 39.3 °F 41.0 °F 93% 30.35 in 2.0 mi East 5.8 mph - N/A   Overcast
6:40 AM 42.8 °F 38.6 °F - N/A% - 2.0 mi East 6.9 mph - N/A   Overcast
7:00 AM 42.8 °F 38.0 °F 41.0 °F 93% 30.33 in 2.0 mi East 8.1 mph - N/A   Overcast
7:39 AM 42.8 °F 36.6 °F - N/A% - 4.0 mi East 11.5 mph - N/A   Overcast
8:00 AM 42.8 °F 37.0 °F 41.0 °F 93% 30.33 in 4.0 mi East 10.4 mph - N/A   Overcast
8:07 AM 42.8 °F 37.0 °F - N/A% - 4.0 mi East 10.4 mph - N/A Rain Light Rain
9:00 AM 44.6 °F 39.2 °F 41.0 °F 87% 30.33 in 3.0 mi ESE 10.4 mph - N/A Rain Light Rain
9:24 AM 44.6 °F 38.8 °F - N/A% - 4.0 mi ESE 11.5 mph - N/A   Overcast
9:35 AM 44.6 °F 38.8 °F - N/A% - 4.0 mi ESE 11.5 mph - N/A Rain Light Rain
10:00 AM 44.6 °F 40.2 °F 42.8 °F 93% 30.33 in 3.0 mi East 8.1 mph - N/A Rain Light Rain
10:53 AM 46.4 °F 42.4 °F - N/A% - 3.0 mi ESE 8.1 mph - N/A   Overcast
11:00 AM 46.4 °F 42.4 °F 44.6 °F 93% 30.32 in 3.0 mi ESE 8.1 mph - N/A   Overcast
11:19 AM 46.4 °F 41.9 °F - N/A% - 3.0 mi SE 9.2 mph - N/A   Overcast
12:00 PM 46.4 °F 42.9 °F 44.6 °F 93% 30.31 in 4.0 mi SE 6.9 mph - N/A   Overcast
12:24 PM 46.4 °F 42.9 °F - N/A% - 3.0 mi ESE 6.9 mph - N/A Rain Light Rain Showers
1:00 PM 46.4 °F 41.9 °F 44.6 °F 93% 30.29 in 4.0 mi East 9.2 mph - N/A Rain Light Rain Showers
1:16 PM 48.2 °F - - N/A% - 4.0 mi East 6.9 mph - N/A   Overcast
2:00 PM 48.2 °F - 44.6 °F 87% 30.28 in 8.0 mi ESE 5.8 mph - N/A   Overcast
3:00 PM 50.0 °F - 46.4 °F 87% 30.27 in 12.0 mi SSE 9.2 mph - N/A   Mostly Cloudy
4:00 PM 49 °F - 45 °F 80% 30.28 in 12 mi East 3.5 mph - -   Partly Cloudy
4:00 PM 48.2 °F - 44.6 °F 87% 30.28 in 12.0 mi East 4.6 mph - N/A   Mostly Cloudy
5:00 PM 46.4 °F 42.9 °F 44.6 °F 93% 30.28 in 10.0 mi East 6.9 mph - N/A   Mostly Cloudy
6:00 PM 46.4 °F 43.5 °F 42.8 °F 87% 30.29 in 10.0 mi East 5.8 mph - N/A   Overcast
6:08 PM 46.4 °F 43.5 °F - N/A% - 6.0 mi East 5.8 mph - N/A Rain Light Rain
6:14 PM 46.4 °F 43.5 °F - N/A% - 6.0 mi East 5.8 mph - N/A Rain Rain Showers
6:23 PM 46.4 °F 42.4 °F - N/A% - 6.0 mi ESE 8.1 mph - N/A Rain Light Rain Showers
6:31 PM 46.4 °F 43.5 °F - N/A% - 8.0 mi East 5.8 mph - N/A   Mostly Cloudy
7:00 PM 44.6 °F 41.4 °F 42.8 °F 93% 30.28 in 8.0 mi ENE 5.8 mph - N/A   Mostly Cloudy
8:00 PM 46.4 °F 44.3 °F 42.8 °F 87% 30.28 in 8.0 mi East 4.6 mph - N/A   Mostly Cloudy
9:00 PM 46.4 °F 43.5 °F 42.8 °F 87% 30.30 in 8.0 mi North 5.8 mph - N/A   Mostly Cloudy
10:00 PM 44 °F - 42 °F 90% 30.31 in 7 mi NNW 3.5 mph - -   Partly Cloudy
10:00 PM 44.6 °F 43.1 °F 42.8 °F 93% 30.31 in 8.0 mi NW 3.5 mph - N/A   Overcast
10:31 PM 44.6 °F 41.4 °F - N/A% - 6.0 mi NW 5.8 mph - N/A   Overcast
11:00 PM 44.6 °F 41.4 °F 42.8 °F 93% 30.32 in 6.0 mi NW 5.8 mph - N/A   Overcast
11:37 PM 44.6 °F 41.4 °F - N/A% - 6.0 mi West 5.8 mph - N/A   Overcast